[Iaude] MPEC X230: 2023 XK10 [a=1.20,e=0.17,i=24.6,H=24.4]

mpec at marsden.cfa.harvard.edu mpec at marsden.cfa.harvard.edu
Tue Dec 12 00:18:11 EST 2023


M.P.E.C. 2023-X230                            Issued 2023 December 12, 05:16 UT

     The Minor Planet Electronic Circulars contain information on unusual
         minor planets, routine data on comets and natural satellites,
         and occasional editorial announcements.  They are published
    on behalf of Division F of the International Astronomical Union by the
          Minor Planet Center, Smithsonian Astrophysical Observatory,
                          Cambridge, MA 02138, U.S.A.
			  
             Prepared using the Tamkin Foundation Computer Network

                              MPC at CFA.HARVARD.EDU
            URL https://www.minorplanetcenter.net/    ISSN 1523-6714

                                   2023 XK10                                    


Observations:
     K23X10K* C2023 12 10.38381805 31 27.226-33 02 18.46         20.11wXEX230F52
     K23X10K  C2023 12 10.39491905 31 22.023-32 58 43.43         20.53wXEX230F52
     K23X10K  C2023 12 10.40598505 31 16.850-32 55 08.74         20.57wXEX230F52
     K23X10K KC2023 12 10.57464805 30 04.006-31 56 50.17         19.8 GVEX230474
     K23X10K KC2023 12 10.57587805 30 03.374-31 56 25.48         19.4 GVEX230474
     K23X10K KC2023 12 10.57710905 30 02.854-31 56 00.56         19.2 GVEX230474
     K23X10K KC2023 12 10.57833805 30 02.234-31 55 35.65         19.8 GVEX230474
     K23X10K KC2023 12 10.57956605 30 01.692-31 55 10.88         19.9 GVEX230474
     K23X10K |C2023 12 11.20787005 25 44.450-28 12 06.60         19.6 GVEX230807
     K23X10K |C2023 12 11.21279605 25 42.070-28 10 15.30         19.9 GVEX230807
     K23X10K |C2023 12 11.21772105 25 39.680-28 08 24.10         20.1 GVEX230807
     K23X10K |C2023 12 12.17688005 18 50.400-21 36 38.70         19.9 GVEX230807
     K23X10K |C2023 12 12.18180005 18 47.900-21 34 28.40         19.6 GVEX230807
     K23X10K |C2023 12 12.18673005 18 45.380-21 32 17.90         20.1 GVEX230807

Observer details:
474 Mount John Observatory, Lake Tekapo.  Observers A. C. Gilmore, P. M.
    Kilmartin.  Measurer P. M. Kilmartin.  1.0-m f/7.7 Reflector + CCD.
807 Cerro Tololo Observatory, La Serena.  Observers T. Linder, R. Holmes, L.
    Horn.  0.61-m f/11 Ritchey-Chretien + CCD.
F52 Pan-STARRS 2, Haleakala.  Observers J. Herman, T. Lowe, P. Minguez, A.
    Schultz, I. Smith.  Measurers K. Chambers, T. de Boer, J. Fairlamb, H.
    Gao, M. Huber, C.-C. Lin, E. Magnier, Y. Ramanjooloo, R. Wainscoat, R.
    Weryk.  1.8-m Ritchey-Chretien + CCD.

Orbital elements:
2023 XK10                                                Earth MOID = 0.0437 AU
Epoch 2023 Sept. 13.0 TT = JDT 2460200.5                MPC                     
M 317.35805              (2000.0)            P               Q                  
n   0.75309631     Peri.  319.72282     +0.66575940     -0.62074207             
a   1.1964715      Node    83.87926     +0.74557062     +0.53123620             
e   0.1685019      Incl.   24.60950     +0.02981403     +0.57659984             
P   1.31           H   24.45          G   0.15           U   8                  
Residuals in seconds of arc
231210 F52  0.1+  0.2-    231210 474  0.3+  0.0     231211 807  0.0   0.1-
231210 F52  0.1-  0.2+    231210 474  0.4-  0.1-    231212 807  0.3+  0.3-
231210 F52  0.0   0.1+    231210 474  0.1-  0.2-    231212 807  0.1+  0.0
231210 474  0.6+  0.2+    231211 807  0.0   0.0     231212 807  0.3-  0.1+
231210 474  0.2-  0.0     231211 807  0.0   0.1+

Ephemeris:
2023 XK10                a,e,i = 1.20, 0.17, 25                  q = 0.9949
Date    TT    R. A. (2000) Decl.     Delta      r    Elong.  Phase     V
2023 11 12    07 08 47.5 -68 12 53   0.2491  0.9952    84.0    81.6    24.3
...
2023 11 27    06 34 38.9 -61 58 41   0.1481  1.0033    92.1    79.4    23.1
...
2023 12 05    06 02 40.4 -51 44 03   0.09262 1.0120   104.0    70.9    21.8
...
2023 12 11    05 27 11.8 -29 29 11   0.05674 1.0203   127.4    50.1    20.1
2023 12 12    05 20 06.9 -22 54 14   0.05237 1.0218   134.1    43.8    19.8
2023 12 13    05 12 41.4 -15 12 18   0.04887 1.0234   141.7    36.6    19.4
...
2023 12 19    04 21 51.0 +37 51 26   0.05358 1.0336   157.2    21.7    19.2
...
2023 12 27    03 08 00.5 +66 33 21   0.1027  1.0490   127.4    48.1    21.4
...
2024 01 11    01 42 24.2 +76 38 19   0.2139  1.0828   112.3    57.2    23.3

A. U. Tomatic                (C) Copyright 2023 MPC           M.P.E.C. 2023-X230





More information about the Iaude mailing list